This is the latest recevied weather packets stored in our database for station/object EA1IOS-11. If no packets are shown the sender has not sent any weather packets the latest 10 day(s).
| Time | Temp. | Humidity | Pressure | Rain* | Wind** | Luminosity | Snow |
|---|---|---|---|---|---|---|---|
| 1777733734 | 15.56° C | 95% | 1016.3 hPa | 3.05 mm | - | - | - |
| 1777733130 | 15.56° C | 95% | 1016.6 hPa | 2.29 mm | - | - | - |
| 1777731375 | 16.11° C | 93% | 1014.9 hPa | 1.78 mm | - | - | - |
| 1777729530 | 16.67° C | 89% | 1016.2 hPa | 0 mm | - | - | - |
| 1777726547 | 18.89° C | 81% | 1015.7 hPa | 0 mm | - | - | - |
| 1777721135 | 18.89° C | 84% | 1016.7 hPa | 0 mm | - | - | - |
| 1777718178 | 18.33° C | 83% | 1016.6 hPa | 0 mm | - | - | - |
| 1777716944 | 17.78° C | 86% | 1016.8 hPa | 0 mm | - | - | - |
| 1777715723 | 18.89° C | 80% | 1016.7 hPa | 0 mm | - | - | - |
| 1777710379 | 17.78° C | 80% | 1016.6 hPa | 0 mm | - | - | - |
| 1777706730 | 16.67° C | 86% | 1016.9 hPa | 0 mm | - | - | - |
| 1777703746 | 16.11° C | 90% | 1016.9 hPa | 0 mm | - | - | - |
| 1777698966 | 16.11° C | 90% | 1016.6 hPa | 0 mm | - | - | - |
| 1777694143 | 15.56° C | 96% | 1016.8 hPa | 0 mm | - | - | - |
| 1777691769 | 15.56° C | 97% | 1017 hPa | 0 mm | - | - | - |
| 1777685767 | 15.56° C | 97% | 1017.5 hPa | 0 mm | - | - | - |
| 1777684547 | 15.56° C | 97% | 1017.4 hPa | 0 mm | - | - | - |
| 1777681570 | 16.11° C | 96% | 1017.7 hPa | 0 mm | - | - | - |
| 1777680356 | 16.11° C | 96% | 1018 hPa | 0 mm | - | - | - |
| 1777677923 | 16.11° C | 96% | 1018.1 hPa | 0 mm | - | - | - |
| 1777676769 | 16.11° C | 95% | 1018.4 hPa | 0 mm | - | - | - |
| 1777674965 | 16.11° C | 95% | 1018.8 hPa | 0 mm | - | - | - |
| 1777673120 | 16.11° C | 94% | 1019 hPa | 0 mm | - | - | - |
| 1777671960 | 16.11° C | 94% | 1019.1 hPa | 0 mm | - | - | - |
| 1777670136 | 16.11° C | 94% | 1019.2 hPa | 0 mm | - | - | - |
* Rain latest hour (hover to see other rain measurements)
** Current wind speed in m/s (hover to see current wind gust speed)